Weather in Leningradskiy

Russia / Chukotka Autonomous Okrug     69°21′33″N   178°23′55″E
temp.,
°C
wind,
m/s
gust,
m/s
humid.,
%
clouds,
%
prec.,
mm/h
press.,
hPa
HPBL,
m
7 may, fri
fri700:00−12s338826 0.0 102212
03:00−13s33846 0.0 102211
06:00−11sse22845 0.0 102120
09:00−7ese22804 0.0 102082
12:00−6e23824 0.0 1020146
15:00−5e23865 0.0 1019158
18:00−8e22955 0.0 102028
21:00−14sse229853 0.0 102010
8 may, sat
sat800:00−16s329743 0.0 102010
03:00−17s229561 0.0 102010
06:00−13sse229264 0.0 102018
09:00−8e228663 0.0 1020107
12:00−7e228772 0.0 1021169
15:00−6e228811 0.0 1021191
18:00−8ese22959 0.0 102113
21:00−13s329621 0.0 102210
9 may, sun
sun900:00−14s329762 0.0 102211
03:00−15s229860 0.0 102211
06:00−12sse229643 0.0 102219
09:00−8e229225 0.0 1022124
12:00−6e229046 0.0 1022198
15:00−6e239066 0.0 1022251
18:00−7se229596 0.1 102279
21:00−11s229893 0.1 102213
10 may, mon
mon1000:00−14ssw329423 0.1 102211
03:00−16ssw229318 0.0 102210
06:00−13ssw22916 0.0 102214
09:00−7se11855 0.0 1021106
12:00−5ese11845 0.0 1021217
15:00−5ese11856 0.0 1021194
18:00−7se11935 0.0 102110
21:00−12ssw229470 0.0 102210
11 may, tue
tue1100:00−14ssw229497 0.0 102210
03:00−14ssw2292100 0.0 102210
06:00−12ssw119153 0.0 102210
09:00−7ene118883 0.0 102197
12:00−5ene218799 0.0 1022219
15:00−4e1288100 0.0 1022285
18:00−4ese1193100 0.0 102233
21:00−8ssw1195100 0.0 102210